Theta_e
316 314 314 315 314 313 314 316 317 317 316 313 315 316 317 316 318 319 320 323 324 325 325 325 326 326 326 321 319 319 317 317 317 316 314 314 314 313 313 313 312 316 320 323
313 316 315 314 314 315 315 316 316 315 315 315 316 315 316 316 316 317 320 323 325 326 325 326 327 324 319 319 318 317 316 316 315 315 314 314 314 313 312 313 312 314 320 322
314 317 315 315 316 316 316 316 317 317 315 314 314 316 316 317 317 318 320 320 320 319 319 318 318 318 317 316 315 315 315 315 315 315 315 314 314 313 312 311 311 311 309 312
316 315 316 316 317 315 317 316 317 317 314 314 312 313 317 317 317 316 317 318 318 318 317 317 316 314 312 312 313 314 314 313 314 314 315 315 314 314 314 313 313 312 310 309
319 318 317 317 317 315 317 316 315 315 312 313 314 312 313 315 318 317 317 316 316 316 316 314 312 312 312 312 312 312 312 314 315 315 315 315 315 315 314 313 313 313 312 312
319 319 317 317 316 316 314 314 311 309 310 313 314 313 311 314 315 315 317 317 316 316 314 312 312 313 312 312 312 312 312 313 314 315 314 313 314 314 313 313 312 312 312 312
319 319 318 318 318 315 312 312 314 312 313 314 313 312 311 312 313 315 316 317 316 314 313 313 313 313 313 313 313 313 313 314 313 313 312 309 308 310 311 310 309 309 310 311
319 321 318 317 317 318 313 312 312 316 314 313 311 315 313 312 315 317 316 316 316 314 313 313 313 313 314 313 313 313 313 312 311 310 309 308 307 308 308 307 307 307 307 308
317 318 317 319 317 316 315 314 311 312 310 312 312 312 312 316 316 316 316 316 315 315 314 313 313 313 314 313 312 311 310 310 310 309 308 307 308 308 307 307 307 307 307 308
317 319 317 319 317 314 314 311 313 310 317 317 312 312 313 314 316 315 315 316 316 315 314 314 313 313 313 311 309 308 308 309 309 308 307 308 308 307 306 307 307 307 308 309
315 315 318 314 313 314 311 312 309 308 309 312 312 312 311 311 309 309 314 316 316 314 313 313 312 312 310 309 308 306 307 308 308 307 306 307 307 306 307 307 308 308 309 310
314 312 315 314 310 311 311 312 309 311 313 309 307 310 311 311 313 313 315 316 314 313 312 312 312 310 309 308 307 305 305 306 305 304 305 307 306 306 308 308 308 308 311 311
312 309 311 311 309 310 314 314 311 307 306 311 310 311 312 312 312 312 312 313 313 313 312 312 311 310 308 307 305 304 304 303 303 303 305 306 305 307 309 308 309 309 309 310
311 306 311 313 311 312 316 316 314 310 306 312 310 311 312 313 312 312 313 313 313 312 312 312 311 309 307 306 304 303 304 304 303 304 305 306 306 308 308 308 309 308 308 307
309 312 311 311 309 314 316 315 313 311 310 311 311 310 313 312 312 313 313 312 312 311 312 312 310 308 307 305 303 303 304 304 305 306 306 306 308 308 308 307 307 306 306 305
309 310 315 316 315 315 315 313 313 312 312 311 315 315 313 313 313 313 313 312 312 311 312 311 309 308 306 304 303 303 305 304 305 305 306 308 308 307 306 304 304 303 303 303
311 310 310 311 312 310 310 312 312 313 316 314 315 313 313 312 312 313 312 312 312 311 311 310 309 308 306 303 302 304 304 305 305 306 306 306 305 304 303 302 301 301 301 302
308 307 306 306 309 308 308 310 313 314 315 314 313 312 312 312 312 312 312 312 312 311 311 310 308 307 305 302 303 304 304 304 306 306 306 304 303 302 302 301 301 301 302 302
308 306 306 308 301 310 315 315 314 314 313 312 312 310 311 312 311 312 311 312 312 310 310 308 307 305 302 302 304 304 305 305 305 304 303 302 302 302 302 302 302 302 302 303
307 305 308 306 310 319 312 314 313 311 311 311 312 311 311 311 311 310 310 311 309 307 306 305 304 302 301 304 303 304 304 304 303 302 302 302 303 302 302 303 303 302 302 303
310 310 310 308 311 312 313 314 313 312 311 311 311 312 311 309 310 310 309 308 305 304 303 303 302 300 302 304 303 303 304 302 302 301 302 303 303 304 303 304 303 304 303 303
313 311 310 313 315 315 313 312 313 310 312 312 312 311 311 310 309 308 305 303 301 301 300 300 301 300 303 304 304 304 303 302 302 303 303 304 303 303 303 303 303 303 304 303
310 311 309 310 310 311 313 312 312 312 312 312 311 311 309 307 305 303 302 301 300 299 299 299 299 302 304 305 304 303 303 303 303 303 304 304 304 303 302 302 301 303 303 303
307 309 307 306 307 310 312 310 311 312 312 311 310 308 305 304 302 301 301 301 300 300 299 300 301 303 303 304 303 303 303 301 301 301 303 303 303 302 301 302 302 303 303 303
305 307 306 305 307 309 310 310 310 311 311 309 307 305 304 302 300 301 301 301 302 303 302 302 303 303 303 302 302 301 300 300 300 301 302 303 302 301 302 302 302 303 302 302
305 304 303 305 309 308 309 310 312 310 309 307 306 304 302 300 300 302 302 302 303 304 304 304 304 303 302 302 300 300 300 301 300 300 301 301 300 301 300 302 302 303 303 303
Wind_Speed
5 5 2 2 4 5 7 4 2 1 3 7 4 5 12 21 21 21 25 26 22 18 14 12 10 8 5 1 3 7 13 18 21 23 23 26 28 31 32 30 28 29 28 28
6 2 2 6 6 8 5 5 2 3 5 7 1 8 6 15 9 15 26 28 26 23 20 16 13 8 5 3 8 12 15 16 14 15 18 20 22 23 22 22 22 23 26 28
5 2 4 6 3 7 3 5 2 2 3 4 4 5 6 5 14 22 26 25 22 20 17 13 9 2 4 9 12 14 14 13 15 18 17 20 21 21 21 21 24 24 25 25
3 4 5 3 4 4 2 2 2 2 3 3 1 2 1 1 4 5 14 16 16 13 10 6 3 6 9 10 10 11 13 17 20 20 20 21 21 22 22 22 24 26 27 28
4 3 3 4 1 3 3 2 2 2 4 3 3 4 4 4 3 5 8 10 10 8 5 4 6 8 10 12 14 16 19 18 17 18 17 20 21 23 25 25 29 31 32 32
1 2 2 3 3 4 4 3 6 4 3 2 1 4 4 5 7 4 8 10 6 4 3 5 7 9 13 13 15 18 21 20 18 17 18 21 22 25 28 30 33 35 36 34
5 4 5 3 3 4 6 6 4 5 4 4 2 2 7 5 5 7 13 7 4 1 3 6 8 12 15 16 18 20 22 19 21 23 26 30 34 32 33 33 34 35 35 35
4 3 4 7 3 1 3 5 5 4 3 4 4 5 4 2 3 4 7 7 2 2 5 9 13 17 19 21 22 22 22 25 27 29 34 37 38 38 36 36 37 36 36 33
3 1 4 5 2 2 1 2 2 5 2 2 3 5 3 3 2 5 6 3 1 4 8 11 15 18 21 22 24 29 33 36 35 35 37 38 37 38 39 40 36 33 33 29
3 2 2 3 1 8 4 4 3 3 2 4 4 4 4 4 6 3 4 5 3 4 7 11 15 16 19 24 30 35 34 36 34 35 39 36 36 42 40 33 29 29 31 23
2 3 4 1 5 2 5 3 6 4 3 3 2 5 2 8 7 8 12 7 4 6 9 10 12 15 23 29 35 38 35 35 37 42 33 33 39 35 26 25 27 28 23 18
2 4 0 2 6 2 4 3 4 4 3 1 3 6 3 3 2 4 4 3 6 8 10 12 14 22 29 34 38 39 35 34 36 34 29 31 31 29 27 24 25 24 18 16
3 2 3 5 5 4 5 3 4 4 3 4 4 5 1 2 3 3 1 5 8 10 14 15 20 26 30 34 40 36 34 34 30 28 24 26 26 29 28 24 21 18 14 11
4 3 6 6 5 3 2 1 2 5 3 2 6 6 4 3 1 5 8 11 14 15 19 19 23 26 32 37 37 35 33 28 27 24 21 23 26 25 20 18 16 12 8 9
4 3 3 3 4 2 3 4 5 6 6 5 5 4 3 3 4 9 13 15 18 23 22 21 24 29 34 40 37 34 32 28 24 19 20 20 19 21 17 15 10 9 7 6
3 3 1 3 3 1 4 6 8 5 4 6 2 4 2 4 9 15 21 21 24 25 24 22 23 31 36 38 35 33 32 24 20 20 20 13 18 16 13 12 9 7 8 8
3 5 3 4 3 5 4 3 3 4 0 0 3 4 3 6 15 21 24 23 28 28 24 23 27 32 37 38 31 30 22 20 18 16 14 18 14 10 11 11 9 7 5 9
5 4 2 3 3 1 5 3 4 3 2 3 3 5 10 16 20 22 24 28 27 27 25 26 29 35 37 34 28 21 18 18 15 14 15 11 9 11 14 15 13 16 16 14
1 5 3 3 1 6 3 1 1 2 6 6 5 8 15 20 15 20 20 18 21 21 26 27 29 31 36 28 20 15 16 16 17 13 10 11 11 13 14 14 12 13 14 14
5 6 4 2 3 3 4 3 1 5 4 2 10 13 17 16 9 8 17 27 25 27 28 29 26 34 26 21 12 14 15 16 12 11 15 16 14 16 13 12 13 12 11 14
2 2 4 2 2 6 3 6 2 4 5 6 10 15 17 5 12 25 27 33 33 31 27 23 27 25 22 14 11 11 12 11 11 15 16 13 11 11 13 15 14 11 16 15
5 5 3 3 2 6 2 2 3 4 10 14 17 16 16 18 23 29 34 33 31 33 26 21 20 22 13 9 8 8 10 14 17 14 11 11 16 15 17 17 17 14 13 12
1 5 4 6 5 3 1 7 13 11 15 16 13 12 16 21 28 31 30 31 27 25 20 16 19 14 11 6 7 12 19 15 11 12 12 14 14 16 16 15 15 14 13 12
2 2 2 4 2 5 9 13 12 13 12 9 10 14 19 26 29 26 26 23 22 21 19 15 11 10 11 13 18 21 15 14 14 13 14 16 17 17 15 15 15 15 14 16
4 1 2 3 9 9 9 15 13 10 7 9 12 18 23 25 24 22 21 19 19 19 17 13 11 11 15 23 21 18 17 15 15 16 18 16 15 14 15 15 14 12 10 11
5 5 3 5 7 4 15 12 9 6 8 13 19 23 22 20 21 19 18 16 16 15 12 10 10 15 23 19 19 17 15 13 13 13 13 13 14 13 14 14 17 14 13 9
Wind_Direction
7 69 164 117 181 142 108 98 124 208 56 77 66 42 7 4 49 90 109 121 123 124 130 140 133 120 116 169 285 325 341 338 331 331 340 343 345 339 333 333 328 328 334 333
20 41 119 90 106 104 96 109 9 324 30 90 38 38 4 26 29 82 106 114 116 116 120 126 135 156 199 298 338 342 337 335 341 345 347 347 342 341 342 339 343 333 331 335
119 292 140 112 96 82 45 117 153 200 28 63 125 36 8 9 68 93 111 118 123 127 132 144 160 138 354 336 335 333 332 335 331 331 333 331 329 331 336 345 345 343 340 331
64 343 97 83 81 108 102 223 179 220 94 214 98 247 340 339 67 72 127 134 138 146 145 123 59 6 359 354 349 344 337 329 324 325 323 324 326 328 328 331 331 334 333 336
277 22 45 61 344 115 173 88 42 19 97 96 338 83 248 182 208 207 189 167 157 142 127 76 32 29 17 10 7 356 344 330 320 319 316 313 313 315 317 319 318 320 323 329
350 328 56 135 59 54 105 81 51 58 85 40 222 110 240 188 198 213 212 198 168 143 104 52 32 23 12 4 353 345 337 329 326 324 326 323 316 314 312 312 311 312 314 319
356 1 334 78 82 29 68 48 348 351 7 223 164 68 245 221 207 200 203 173 164 108 27 19 17 4 356 346 340 335 330 323 327 326 324 322 319 311 307 308 307 307 309 312
136 321 17 341 61 172 45 134 150 256 230 262 271 246 255 251 205 179 149 165 161 9 8 9 358 348 339 336 334 333 327 322 319 315 316 318 315 311 309 309 306 303 303 305
129 317 320 51 16 87 156 57 169 106 28 52 262 306 349 31 85 135 145 170 241 360 3 350 338 332 330 331 331 329 323 318 316 314 316 314 310 309 310 312 302 300 298 295
191 97 9 310 61 45 98 143 35 13 247 271 289 278 243 308 262 259 209 236 262 326 323 315 320 325 329 328 327 327 321 317 313 310 313 310 310 311 309 306 306 301 303 294
108 86 289 22 24 347 0 30 53 113 122 201 303 269 216 274 278 251 212 222 248 290 302 303 316 328 326 327 331 329 318 312 306 309 311 307 313 323 320 316 312 310 307 294
4 123 139 80 316 257 102 129 106 104 273 134 155 263 327 299 348 137 162 228 268 284 292 304 316 326 333 332 330 327 321 311 311 313 312 309 320 322 319 312 313 314 298 310
173 28 27 2 353 354 81 106 109 99 70 215 155 270 36 37 56 89 18 314 300 285 292 297 318 328 331 330 331 329 324 322 322 317 317 320 321 324 321 317 317 305 317 319
97 116 155 190 215 164 285 190 131 132 119 229 236 285 251 218 262 317 315 307 298 290 292 299 318 322 328 332 333 330 329 329 330 326 323 327 326 333 336 331 331 328 331 325
89 176 191 256 245 206 235 250 180 188 213 187 263 254 300 226 267 287 291 299 298 290 288 302 312 323 330 334 332 330 329 328 332 331 332 329 324 329 335 343 342 344 341 6
24 189 143 276 349 84 276 286 291 244 219 236 278 282 220 271 281 286 289 300 304 299 291 307 313 324 330 332 331 329 330 333 326 327 331 342 335 336 347 2 6 20 48 65
101 126 92 272 4 343 332 231 251 277 129 206 242 246 276 282 279 284 295 300 305 300 295 308 314 322 327 330 329 328 334 339 340 335 332 342 344 8 25 27 17 2 36 51
125 99 87 240 358 357 248 333 213 250 259 218 219 247 262 273 291 295 297 307 310 306 299 304 312 318 325 326 327 333 334 341 341 335 342 359 34 62 63 53 51 65 51 47
85 117 84 114 168 287 144 218 86 96 282 214 217 275 294 307 311 300 318 323 321 309 302 304 311 318 323 325 328 337 354 350 352 3 28 58 79 71 59 54 54 58 57 51
78 79 111 110 125 256 237 208 198 140 293 256 222 275 295 315 309 304 324 319 319 315 311 311 314 322 324 328 335 334 357 355 17 60 83 80 55 67 64 57 62 66 65 70
65 28 161 134 223 294 256 242 11 77 249 287 291 294 303 266 292 311 317 314 314 315 316 310 313 322 326 334 338 346 1 28 72 95 85 70 60 51 61 52 61 79 77 65
170 149 189 134 198 270 342 26 209 236 305 305 307 312 314 313 314 314 316 320 322 320 320 312 311 325 339 347 7 31 57 89 93 71 59 51 59 71 61 62 54 52 54 55
266 178 180 172 215 245 287 287 280 282 296 298 306 315 318 316 318 321 325 329 336 339 337 329 317 342 357 33 59 86 103 86 59 71 71 69 63 61 72 58 60 63 62 69
327 179 147 50 299 243 263 311 302 285 293 302 316 320 322 321 326 328 333 339 347 355 352 355 10 26 59 81 100 95 82 75 79 77 77 75 77 73 60 64 62 61 63 62
209 108 166 261 279 292 294 301 302 294 300 318 322 325 326 329 336 334 337 345 349 1 12 22 41 76 96 108 94 88 88 87 87 81 77 83 72 66 65 60 53 50 60 60
196 190 153 224 240 254 308 330 319 309 315 321 326 327 330 336 333 332 337 340 345 359 20 49 78 104 117 104 99 98 93 92 87 90 92 79 69 69 55 58 47 53 53 58